Regional Weather Roundup
Issued by NWS

Home | Current Version | Previous Version | Graphics & Text | Print | Product List | Glossary Off
Versions: 1 2 3 4 5 6 7 8 9 10 11 12 13 14 15 16 17 18 19 20 21 22 23 24 25 26 27 28 29 30 31 32 33 34 35 36 37 38 39 40 41 42 43 44 45 46 47 48 49 50

000
ASUS43 KTOP 200859
RWRKS

WEATHER ROUNDUP FOR KANSAS
NATIONAL WEATHER SERVICE GOODLAND KS
400 AM CDT SAT SEP 20 2014

NOTE:  "FAIR" INDICATES FEW OR NO CLOUDS BELOW 12,000 FEET WITH NO
SIGNIFICANT WEATHER AND/OR OBSTRUCTIONS TO VISIBILITY.

KSZ001>006-013>018-027>032-041>047-201000-
NORTHWEST KANSAS

CITY           SKY/WX    TMP DP  RH WIND       PRES   REMARKS
GOODLAND       PTCLDY    66  61  84 SW13      29.97R
HAYS           CLEAR     66  57  72 SW9       29.95R
HILL CITY      CLEAR     68  59  73 S7        29.92F
RUSSELL        CLEAR     70  61  73 S15       29.92R
$$

KSZ061>065-074>080-084>089-201000-
SOUTHWEST KANSAS

CITY           SKY/WX    TMP DP  RH WIND       PRES   REMARKS
DODGE CITY     CLEAR     67  60  78 S14       29.98F
ELKHART          N/A     65  60  84 S8          N/A
GARDEN CITY    CLEAR     61  59  93 S6        29.99R
GREAT BEND     CLEAR     70  61  73 S13       29.95S
LIBERAL        CLEAR     64  57  77 S8        30.02S
$$

KSZ066>073-081>083-090>101-201000-
SOUTHEAST KANSAS

CITY           SKY/WX    TMP DP  RH WIND       PRES   REMARKS
CHANUTE        CLEAR     67  66  97 S8        29.97S FOG
HUTCHINSON     CLEAR     69  64  84 S9        29.96F
NEWTON         CLEAR     70  63  78 S15       29.99F
PARSONS        CLEAR     67  66  97 S3        29.99R FOG
WICHITA INTL   CLEAR     70  67  90 S10       29.97S
WICHITA JABRA  CLEAR     70  68  93 S14G21    29.97S
WINFIELD       PTCLDY    70  69  97 S7        29.99S
$$

KSZ007>012-019>026-033>040-048>060-102>105-201000-
NORTHEAST KANSAS

CITY           SKY/WX    TMP DP  RH WIND       PRES   REMARKS
CONCORDIA      CLEAR     70  64  81 S17G24    29.90S
EMPORIA        PTCLDY    68  67  96 S12       29.95S FOG
LAWRENCE       CLEAR     68  65  90 S8        29.93S FOG
MANHATTAN      CLEAR     71  68  90 SW13      29.92R
OLATHE IND     PTCLDY    65  65 100 S8        29.95F FOG
OLATHE EXE     PTCLDY    66  65  96 S7        29.94S FOG
SALINA         CLEAR     70  65  84 S12       29.93R
TOPEKA BILLARD CLEAR     70  69  97 S9        29.93R FOG
TOPEKA FORBES  CLEAR     68  66  93 S8        29.94R FOG
$$



USA.gov is the U.S. government's official web portal to all federal, state and local government web resources and services.